Regional Weather Roundup
Issued by NWS

Home | Current Version | Previous Version | Graphics & Text | Print | Product List | Glossary On
Versions: 1 2 3 4 5 6 7 8 9 10 11 12 13 14 15 16 17 18 19 20 21 22 23 24 25 26 27 28 29 30 31 32 33 34 35 36 37 38 39 40 41 42 43 44 45 46 47 48 49 50
000
ASUS43 KLMK 160210
RWRKY
KENTUCKY REGIONAL WEATHER ROUNDUP
NATIONAL WEATHER SERVICE LOUISVILLE KY
900 PM EST FRI DEC 15 2017

NOTE "FAIR" INDICATES FEW OR NO CLOUDS BELOW 12,000 FEET
WITH NO SIGNIFICANT WEATHER AND/OR OBSTRUCTIONS TO VISIBILITY.

KYZ001>023-026-027-061>063-070>075-160300-
WESTERN AND SOUTH CENTRAL KENTUCKY

CITY           SKY/WX    TMP DP  RH WIND       PRES   REMARKS
PADUCAH        CLEAR     39  25  57 S5        30.12S
HENDERSON      CLOUDY    37  27  67 S6        30.13S WCI  32
OWENSBORO      CLOUDY    38  27  64 S5        30.14S WCI  34
HOPKINSVILLE   CLEAR     37  23  56 S7        30.15R WCI  32
BOWLING GREEN  CLOUDY    38  24  57 S8        30.16R WCI  32
GLASGOW        CLOUDY    36  24  62 CALM      30.16S
$$

KYZ024-025-028>034-038-045-046-053-160300-
NORTH CENTRAL KENTUCKY

CITY           SKY/WX    TMP DP  RH WIND       PRES   REMARKS
LOUISVILLE/SDF PTCLDY    35  23  61 SW6       30.13R WCI  30
LOUISVILLE/LOU PTCLDY    33  23  66 SW6       30.13S WCI  28
FORT KNOX      CLOUDY    33  22  63 SW6       30.11R WCI  28
$$

KYZ035>037-039>044-047>052-055>060-089>105-160300-
NORTHEAST KENTUCKY

CITY           SKY/WX    TMP DP  RH WIND       PRES   REMARKS
LEXINGTON      CLOUDY    34  22  61 SW8       30.12R WCI  27
COVINGTON      CLOUDY    31  23  72 SW7       30.08S WCI  24
FRANKFORT      CLOUDY    34  21  59 SW3       30.11R
$$

KYZ054-064>069-076>088-106>120-160300-
SOUTHEAST KENTUCKY

CITY           SKY/WX    TMP DP  RH WIND       PRES   REMARKS
JACKSON        CLOUDY    31  20  63 VRB3      30.12R
LONDON         CLOUDY    32  20  61 S6        30.15R WCI  26
SOMERSET       CLOUDY    32  21  64 SW7       30.17S WCI  26
MIDDLESBORO    CLOUDY    30  22  73 CALM      30.17S
MONTICELLO     CLOUDY    34  23  64 W14       30.18S WCI  25
$$





USA.gov is the U.S. government's official web portal to all federal, state and local government web resources and services.